Flag for Germany Weather past 2 weeks in Schönebeck, Saxony-Anhalt, Germany

Now
59 °F

Passing clouds.


Feels Like: 59 °F
Forecast: 47 / 65 °F
Wind: 1 mph from East

Location: Magdeburg

Current Time: Sep 3, 2015 at 9:19:58 PM

Latest Report: Sep 3, 2015 at 8:00 PM


Visibility: 28 mi

Pressure: 29.92 "Hg

Humidity: 86%

Dew point: 54 °F

Location of SchönebeckLocation

Historic Weather in Schönebeck — Graph

°F

Schönebeck temperature yesterday

Maximum temperature yesterday: 68 °F (at 6:00 PM)
Minimum temperature yesterday: 53 °F (at 7:00 AM)
Average temperature yesterday: 60 °F

Past Weeks' High & Low Weather Summary

 TemperatureHumidityPressure
High91 °F (Aug 31, 6:00 PM)100% (Aug 20, 5:00 AM)30.30 "Hg (Aug 20, 5:00 AM)
Low51 °F (Aug 23, 7:00 AM)30% (Aug 22, 4:00 PM)29.66 "Hg (Aug 24, 7:00 PM)
Average66 °F73%30.00 "Hg
* Reported Aug 19 8:00 PM — Sep 3 8:00 PM, Schönebeck, Weather by CustomWeather, © 2015

Note: Actual official high and low records may vary slightly from our data, if they occured in-between our weather recording intervals... More about our weather records

Advertising

Schönebeck weather history for previous 24 hours

 ConditionsComfort  
Time TempWeatherWind HumidityBarometerVisibility
8:00 PM
Thu, Sep 3
59 °FPassing clouds.1 mph86%29.92 "Hg28 mi
7:00 PM62 °FOvercast.1 mph79%29.91 "Hg28 mi
6:00 PM60 °FThunderstorms. Partly sunny.2 mph81%29.91 "Hg25 mi
5:00 PM66 °FOvercast.2 mph67%29.90 "Hg25 mi
4:00 PM68 °FOvercast.1 mph55%29.90 "Hg25 mi
3:00 PM65 °FPartly sunny.2 mph61%29.92 "Hg19 mi
2:00 PM63 °FPartly sunny.2 mph70%29.93 "Hg16 mi
1:00 PM62 °FPartly sunny.3 mph74%29.93 "Hg12 mi
12:00 PM62 °FPartly sunny.3 mph76%29.94 "Hg10 mi
10:00 AM57 °FLow clouds.1 mph94%29.95 "Hg4 mi
9:00 AM55 °FOvercast.1 mph98%29.96 "Hg2 mi
8:00 AM55 °FLight rain. Low clouds.2 mph98%29.94 "Hg5 mi
7:00 AM55 °FLight rain. Overcast.2 mph91%29.95 "Hg6 mi
5:00 AM53 °FOvercast.1 mph93%29.95 "Hg12 mi
4:00 AM53 °FOvercast.1 mph93%29.96 "Hg11 mi
3:00 AM55 °FOvercast.1 mph85%29.97 "Hg17 mi
2:00 AM55 °FOvercast.1 mph84%29.98 "Hg22 mi
1:00 AM54 °FOvercast.1 mph88%29.98 "Hg18 mi
10:00 PM
Wed, Sep 2
56 °FPassing clouds.1 mph83%29.99 "Hg28 mi
9:00 PM58 °FPassing clouds.1 mph76%29.99 "Hg37 mi
Weather by CustomWeather, © 2015

See weather overviewHow to use our weather pages